User: anonymous   Login
Location: Caltech
(34.1382°N, 118.1253°W)
Time: 01:42:30
(UTC-07:00)
Language:

ASTRO E2 - Orbit

View from above orbital plane
View from above orbital plane
View from above satellite
View from above satellite

Ground track
Ground track

The orbit data is extracted from the following two-line orbital elements,

1 28773U 05025A   16180.86414060  .00000893  00000-0  42366-4 0  9999
2 28773  31.3834  66.0155 0004658  42.2441 317.8564 15.14834591603716
Epoch (UTC): 28 June 2016 20:44:21
Eccentricity: 0.0004658
inclination: 31.3834°
perigee height: 518 km
apogee height: 525 km
right ascension of ascending node: 66.0155°
argument of perigee: 42.2441°
revolutions per day: 15.14834591
mean anomaly at epoch: 317.8564°
orbit number at epoch: 60371

The dashed part of the orbit path shows where the satellite is in the earth's shadow,  

DLR